This demonstration page uses our WeatherBlox Daily Observations layout. Learn more.

41.55636, -103.73856

Hourly Observations for January 26, 2019

Temp ( °F °C ) Dew Point ( °F °C ) Humidity (%) Winds ( mph kmh ) Pressure ( in mb ) Visibility ( mi km ) Precip ( " mm )
12:53 am 00:53 Clear 17 -8.3 14 -10 88 88 WNW 5 7 30.18 1022 10 16.09344 0 0
1:53 am 01:53 Mostly Clear 16 -8.9 12 -11.1 84 84 NNW 3 6 30.18 1022 10 16.09344 0 0
2:53 am 02:53 Clear 21 -6.1 16 -8.9 81 81 WNW 10 17 30.12 1020 10 16.09344 0 0
3:53 am 03:53 Clear 21 -6.1 16 -8.9 81 81 WNW 8 13 30.12 1020 10 16.09344 0 0
4:53 am 04:53 Clear 24 -4.4 17 -8.3 75 75 WNW 9 15 30.12 1020 10 16.09344 0 0
5:53 am 05:53 Clear 19 -7.2 16 -8.9 88 88 NNW 6 9 30.12 1020 10 16.09344 0 0
6:53 am 06:53 Clear 22 -5.6 17 -8.3 82 82 NW 7 11 30.12 1020 10 16.09344 0 0
7:53 am 07:53 Mostly Sunny 24 -4.4 18 -7.8 77 77 NNW 3 6 30.18 1022 10 16.09344 0 0
8:53 am 08:53 Sunny 28 -2.2 21 -6.1 75 75 W 9 15 30.18 1022 10 16.09344 0 0
9:53 am 09:53 Sunny 34 1.1 22 -5.6 61 61 W 13 20 30.18 1022 10 16.09344 0 0
10:53 am 10:53 Cloudy 38 3.3 23 -5 55 55 W 13 20 30.18 1022 10 16.09344 0 0
11:53 am 11:53 Cloudy 38 3.3 24 -4.4 57 57 WNW 18 30 30.15 1021 10 16.09344 0 0
12:53 pm 12:53 Cloudy 40 4.4 26 -3.3 58 58 WNW 23 37 30.12 1020 10 16.09344 0 0
1:53 pm 13:53 Cloudy 40 4.4 27 -2.8 60 60 NW 22 35 30.12 1020 10 16.09344 0 0
2:53 pm 14:53 Cloudy 41 5 28 -2.2 60 60 NW 21 33 30.12 1020 10 16.09344 0 0
3:53 pm 15:53 Mostly Cloudy 41 5 28 -2.2 60 60 WNW 22 35 30.12 1020 10 16.09344 0 0
4:53 pm 16:53 Mostly Cloudy 39 3.9 27 -2.8 62 62 WNW 13 20 30.15 1021 10 16.09344 0 0
5:53 pm 17:53 Cloudy 40 4.4 27 -2.8 60 60 WNW 16 26 30.18 1022 10 16.09344 0 0
6:53 pm 18:53 Cloudy 40 4.4 27 -2.8 60 60 WNW 14 22 30.18 1022 10 16.09344 0 0
7:53 pm 19:53 Cloudy 38 3.3 28 -2.2 68 68 W 9 15 30.18 1022 10 16.09344 0 0
8:53 pm 20:53 Cloudy 37 2.8 27 -2.8 67 67 W 13 20 30.15 1021 10 16.09344 0 0
9:53 pm 21:53 Cloudy 37 2.8 27 -2.8 67 67 W 13 20 30.12 1020 10 16.09344 0 0
10:53 pm 22:53 Mostly Cloudy 35 1.7 26 -3.3 70 70 WNW 10 17 30.09 1019 10 16.09344 0 0
11:53 pm 23:53 Clear 34 1.1 25 -3.9 70 70 WNW 9 15 30.06 1018 10 16.09344 0 0

Powered by AerisWeather